QPF
0.12 0.14 0.13 0.09 0.07 0.07 0.09 0.14 0.16 0.15 0.14 0.10 0.07 0.07 0.09 0.09 0.09 0.06 0.06 0.06 0.06 0.05 0.04 0.03 0.02 0.01 0.01 0.01 0.02 0.02 0.02 0.02 0.02 0.02 0.02 0.02 0.02 0.03
0.13 0.14 0.13 0.10 0.08 0.08 0.10 0.13 0.15 0.16 0.16 0.11 0.09 0.08 0.08 0.07 0.09 0.07 0.08 0.09 0.08 0.06 0.04 0.03 0.02 0.02 0.02 0.01 0.02 0.02 0.02 0.01 0.01 0.01 0.01 0.01 0.02 0.02
0.12 0.14 0.14 0.13 0.11 0.08 0.09 0.10 0.12 0.15 0.14 0.09 0.07 0.07 0.09 0.09 0.09 0.10 0.11 0.12 0.10 0.09 0.07 0.05 0.04 0.03 0.03 0.03 0.03 0.02 0.02 0.02 0.02 0.01 0.01 0.01 0.01 0.02
0.13 0.14 0.12 0.12 0.14 0.11 0.10 0.09 0.11 0.13 0.14 0.12 0.09 0.09 0.09 0.09 0.10 0.10 0.09 0.09 0.10 0.12 0.10 0.07 0.05 0.05 0.04 0.04 0.03 0.03 0.03 0.03 0.03 0.02 0.02 0.02 0.02 0.03
0.13 0.12 0.12 0.13 0.13 0.12 0.11 0.12 0.12 0.11 0.15 0.15 0.11 0.10 0.09 0.10 0.12 0.11 0.12 0.12 0.12 0.13 0.11 0.08 0.07 0.06 0.05 0.05 0.03 0.03 0.03 0.03 0.03 0.03 0.03 0.03 0.03 0.02
0.13 0.14 0.14 0.13 0.14 0.14 0.13 0.14 0.15 0.16 0.17 0.16 0.14 0.11 0.12 0.14 0.14 0.13 0.13 0.13 0.12 0.10 0.11 0.08 0.07 0.07 0.05 0.04 0.04 0.04 0.04 0.04 0.03 0.03 0.04 0.04 0.03 0.03
0.12 0.13 0.14 0.13 0.12 0.12 0.10 0.12 0.13 0.14 0.16 0.17 0.16 0.13 0.12 0.14 0.15 0.15 0.14 0.13 0.13 0.10 0.09 0.08 0.07 0.06 0.05 0.05 0.05 0.05 0.05 0.05 0.05 0.05 0.05 0.05 0.05 0.04
0.12 0.11 0.11 0.11 0.10 0.09 0.08 0.07 0.08 0.10 0.12 0.14 0.14 0.13 0.13 0.15 0.16 0.16 0.15 0.14 0.12 0.09 0.09 0.07 0.07 0.06 0.05 0.05 0.06 0.06 0.05 0.05 0.05 0.05 0.06 0.05 0.05 0.05
0.09 0.10 0.09 0.07 0.07 0.07 0.07 0.06 0.06 0.06 0.07 0.09 0.10 0.09 0.11 0.13 0.14 0.16 0.15 0.13 0.13 0.11 0.09 0.07 0.06 0.05 0.05 0.04 0.04 0.04 0.04 0.04 0.04 0.04 0.04 0.04 0.04 0.05
0.05 0.06 0.08 0.08 0.07 0.07 0.07 0.06 0.05 0.05 0.05 0.06 0.07 0.08 0.10 0.13 0.15 0.17 0.18 0.18 0.17 0.13 0.10 0.08 0.05 0.04 0.03 0.03 0.03 0.03 0.03 0.04 0.03 0.03 0.03 0.03 0.04 0.04
0.04 0.03 0.04 0.05 0.07 0.08 0.07 0.07 0.07 0.06 0.06 0.06 0.06 0.06 0.07 0.08 0.09 0.10 0.10 0.08 0.08 0.07 0.08 0.06 0.05 0.05 0.04 0.03 0.03 0.04 0.04 0.05 0.05 0.04 0.04 0.05 0.05 0.06
0.04 0.03 0.04 0.05 0.06 0.06 0.06 0.07 0.07 0.06 0.06 0.05 0.04 0.05 0.04 0.04 0.04 0.03 0.05 0.06 0.06 0.06 0.07 0.05 0.04 0.04 0.04 0.04 0.05 0.05 0.05 0.05 0.05 0.05 0.05 0.06 0.08 0.09
0.03 0.03 0.02 0.03 0.03 0.04 0.05 0.05 0.06 0.06 0.06 0.05 0.04 0.03 0.03 0.04 0.04 0.05 0.05 0.06 0.06 0.06 0.05 0.05 0.05 0.04 0.05 0.05 0.05 0.05 0.04 0.04 0.04 0.05 0.06 0.08 0.09 0.10
0.02 0.03 0.02 0.02 0.02 0.02 0.02 0.03 0.04 0.05 0.06 0.05 0.04 0.04 0.05 0.05 0.05 0.06 0.07 0.07 0.07 0.06 0.06 0.07 0.06 0.05 0.06 0.06 0.05 0.05 0.05 0.05 0.05 0.06 0.07 0.10 0.10 0.09
0.03 0.03 0.03 0.03 0.03 0.02 0.02 0.02 0.03 0.03 0.04 0.05 0.05 0.05 0.05 0.05 0.06 0.06 0.06 0.06 0.05 0.05 0.05 0.06 0.07 0.07 0.07 0.07 0.07 0.06 0.06 0.07 0.07 0.06 0.07 0.07 0.07 0.08
0.04 0.03 0.03 0.03 0.03 0.02 0.02 0.02 0.03 0.03 0.04 0.05 0.05 0.06 0.06 0.07 0.07 0.06 0.06 0.06 0.06 0.06 0.06 0.07 0.09 0.09 0.09 0.08 0.08 0.08 0.07 0.07 0.07 0.08 0.08 0.09 0.09 0.09
0.03 0.03 0.02 0.02 0.02 0.02 0.02 0.02 0.02 0.02 0.03 0.03 0.03 0.03 0.03 0.03 0.03 0.03 0.03 0.03 0.04 0.04 0.04 0.05 0.05 0.05 0.05 0.05 0.05 0.04 0.04 0.05 0.05 0.06 0.08 0.09 0.10 0.10
0.02 0.03 0.03 0.04 0.04 0.04 0.03 0.03 0.02 0.02 0.01 0.01 0.01 0.01 0.01 0.01 0.01 0.01 0.01 0.02 0.02 0.02 0.02 0.03 0.03 0.03 0.02 0.02 0.02 0.02 0.02 0.03 0.04 0.05 0.05 0.06 0.06 0.05
0.02 0.03 0.04 0.04 0.04 0.03 0.03 0.03 0.03 0.03 0.02 0.02 0.02 0.02 0.02 0.02 0.02 0.02 0.02 0.02 0.03 0.02 0.02 0.02 0.02 0.02 0.02 0.02 0.01 0.01 0.01 0.02 0.03 0.04 0.04 0.05 0.05 0.05
0.02 0.02 0.03 0.03 0.03 0.03 0.03 0.04 0.04 0.04 0.04 0.05 0.05 0.04 0.04 0.03 0.03 0.02 0.02 0.02 0.02 0.02 0.01 0.01 0.01 0.01 0.02 0.02 0.02 0.01 0.01 0.02 0.03 0.03 0.04 0.05 0.05 0.05
0.03 0.03 0.03 0.03 0.04 0.04 0.04 0.04 0.04 0.04 0.04 0.04 0.04 0.03 0.03 0.03 0.03 0.02 0.02 0.02 0.02 0.01 0.01 0.01 0.01 0.01 0.01 0.01 0.01 0.01 0.01 0.02 0.02 0.03 0.04 0.05 0.05 0.05
0.01 0.02 0.02 0.03 0.03 0.03 0.03 0.03 0.03 0.03 0.03 0.03 0.03 0.03 0.03 0.02 0.02 0.02 0.01 0.02 0.01 0.01 0.01 0.01 0.01 0.01 0.01 0.02 0.02 0.01 0.01 0.02 0.02 0.03 0.03 0.03 0.04 0.04
0.01 0.01 0.02 0.02 0.03 0.03 0.03 0.03 0.03 0.03 0.03 0.03 0.03 0.03 0.03 0.03 0.02 0.02 0.02 0.02 0.02 0.02 0.02 0.02 0.02 0.02 0.02 0.02 0.02 0.02 0.02 0.02 0.02 0.03 0.03 0.03 0.03 0.04
MSLP
1015.39 1015.39 1015.48 1015.67 1015.92 1016.19 1016.44 1016.62 1016.70 1016.66 1016.51 1016.26 1015.95 1015.60 1015.27 1015.00 1014.80 1014.69 1014.69 1014.78 1014.95 1015.17 1015.41 1015.65 1015.86 1016.03 1016.15 1016.22 1016.26 1016.28 1016.31 1016.37 1016.47 1016.63 1016.86 1017.17 1017.55 1017.99
1014.93 1014.94 1015.05 1015.26 1015.55 1015.88 1016.19 1016.44 1016.60 1016.64 1016.54 1016.34 1016.04 1015.70 1015.35 1015.03 1014.78 1014.62 1014.56 1014.59 1014.70 1014.87 1015.07 1015.28 1015.47 1015.62 1015.73 1015.79 1015.82 1015.83 1015.84 1015.87 1015.95 1016.09 1016.30 1016.58 1016.95 1017.39
1014.59 1014.60 1014.71 1014.93 1015.24 1015.59 1015.93 1016.23 1016.43 1016.52 1016.48 1016.32 1016.07 1015.76 1015.42 1015.09 1014.82 1014.62 1014.50 1014.47 1014.52 1014.64 1014.79 1014.95 1015.10 1015.22 1015.31 1015.36 1015.37 1015.37 1015.36 1015.38 1015.44 1015.55 1015.74 1016.01 1016.35 1016.79
1014.35 1014.36 1014.47 1014.69 1014.98 1015.32 1015.66 1015.97 1016.20 1016.33 1016.34 1016.24 1016.05 1015.78 1015.48 1015.17 1014.90 1014.68 1014.52 1014.44 1014.43 1014.47 1014.55 1014.65 1014.74 1014.82 1014.88 1014.90 1014.90 1014.88 1014.87 1014.87 1014.91 1015.01 1015.18 1015.43 1015.77 1016.19
1014.16 1014.19 1014.30 1014.49 1014.76 1015.07 1015.40 1015.70 1015.94 1016.10 1016.16 1016.12 1015.99 1015.79 1015.55 1015.29 1015.03 1014.80 1014.62 1014.49 1014.41 1014.37 1014.37 1014.39 1014.41 1014.44 1014.44 1014.44 1014.41 1014.38 1014.35 1014.35 1014.38 1014.47 1014.63 1014.87 1015.20 1015.63
1014.01 1014.06 1014.17 1014.35 1014.58 1014.86 1015.16 1015.44 1015.67 1015.85 1015.95 1015.97 1015.92 1015.80 1015.62 1015.42 1015.20 1014.98 1014.78 1014.60 1014.45 1014.34 1014.25 1014.18 1014.13 1014.08 1014.03 1013.98 1013.93 1013.88 1013.85 1013.83 1013.86 1013.95 1014.10 1014.35 1014.68 1015.11
1013.89 1013.96 1014.08 1014.25 1014.46 1014.70 1014.96 1015.21 1015.44 1015.63 1015.76 1015.83 1015.85 1015.80 1015.70 1015.56 1015.38 1015.18 1014.97 1014.75 1014.54 1014.35 1014.18 1014.02 1013.89 1013.77 1013.67 1013.57 1013.49 1013.43 1013.38 1013.37 1013.40 1013.48 1013.64 1013.89 1014.24 1014.68
1013.81 1013.91 1014.04 1014.21 1014.40 1014.61 1014.84 1015.06 1015.26 1015.45 1015.60 1015.71 1015.78 1015.80 1015.76 1015.68 1015.54 1015.36 1015.14 1014.90 1014.64 1014.39 1014.14 1013.90 1013.70 1013.51 1013.36 1013.23 1013.12 1013.04 1012.99 1012.98 1013.02 1013.11 1013.28 1013.54 1013.89 1014.34
1013.77 1013.91 1014.07 1014.25 1014.43 1014.62 1014.81 1014.99 1015.17 1015.34 1015.49 1015.62 1015.72 1015.78 1015.79 1015.75 1015.65 1015.49 1015.28 1015.02 1014.73 1014.42 1014.11 1013.82 1013.56 1013.33 1013.13 1012.97 1012.85 1012.76 1012.71 1012.70 1012.74 1012.85 1013.03 1013.29 1013.65 1014.11
1013.81 1014.00 1014.20 1014.39 1014.57 1014.74 1014.89 1015.03 1015.17 1015.30 1015.43 1015.56 1015.66 1015.74 1015.78 1015.77 1015.70 1015.55 1015.35 1015.08 1014.77 1014.43 1014.09 1013.77 1013.47 1013.21 1012.99 1012.81 1012.68 1012.59 1012.54 1012.54 1012.58 1012.69 1012.87 1013.15 1013.51 1013.97
1013.93 1014.18 1014.41 1014.62 1014.80 1014.95 1015.07 1015.17 1015.26 1015.35 1015.44 1015.53 1015.62 1015.70 1015.75 1015.75 1015.69 1015.56 1015.36 1015.10 1014.78 1014.44 1014.09 1013.74 1013.43 1013.16 1012.93 1012.75 1012.61 1012.52 1012.47 1012.47 1012.51 1012.62 1012.80 1013.06 1013.42 1013.88
1014.14 1014.43 1014.70 1014.93 1015.11 1015.24 1015.33 1015.38 1015.42 1015.45 1015.49 1015.54 1015.60 1015.66 1015.70 1015.70 1015.65 1015.54 1015.35 1015.10 1014.80 1014.46 1014.11 1013.77 1013.45 1013.17 1012.94 1012.76 1012.62 1012.52 1012.47 1012.45 1012.48 1012.58 1012.74 1012.99 1013.33 1013.77
1014.40 1014.72 1015.01 1015.25 1015.43 1015.55 1015.60 1015.62 1015.60 1015.59 1015.58 1015.59 1015.62 1015.65 1015.68 1015.68 1015.63 1015.53 1015.36 1015.13 1014.84 1014.51 1014.17 1013.84 1013.52 1013.25 1013.01 1012.82 1012.67 1012.56 1012.48 1012.44 1012.45 1012.52 1012.65 1012.87 1013.18 1013.60
1014.67 1015.00 1015.30 1015.54 1015.72 1015.81 1015.84 1015.82 1015.77 1015.72 1015.68 1015.66 1015.66 1015.68 1015.70 1015.71 1015.67 1015.57 1015.42 1015.20 1014.93 1014.62 1014.29 1013.96 1013.64 1013.36 1013.11 1012.90 1012.73 1012.59 1012.48 1012.41 1012.38 1012.40 1012.49 1012.67 1012.94 1013.32
1014.91 1015.23 1015.51 1015.74 1015.89 1015.97 1015.99 1015.95 1015.89 1015.82 1015.76 1015.73 1015.73 1015.75 1015.78 1015.78 1015.76 1015.68 1015.54 1015.33 1015.07 1014.77 1014.44 1014.11 1013.78 1013.48 1013.21 1012.97 1012.77 1012.59 1012.44 1012.32 1012.24 1012.21 1012.25 1012.38 1012.61 1012.94
1015.07 1015.35 1015.60 1015.79 1015.93 1016.00 1016.01 1015.97 1015.91 1015.85 1015.81 1015.79 1015.81 1015.84 1015.87 1015.89 1015.88 1015.81 1015.68 1015.48 1015.23 1014.92 1014.59 1014.24 1013.90 1013.58 1013.28 1013.00 1012.76 1012.53 1012.34 1012.17 1012.04 1011.96 1011.94 1012.02 1012.20 1012.49
1015.13 1015.35 1015.54 1015.71 1015.82 1015.88 1015.90 1015.88 1015.85 1015.82 1015.80 1015.82 1015.86 1015.91 1015.97 1016.00 1016.00 1015.93 1015.80 1015.61 1015.34 1015.03 1014.69 1014.32 1013.96 1013.61 1013.28 1012.97 1012.68 1012.42 1012.19 1011.98 1011.80 1011.68 1011.62 1011.65 1011.77 1012.01
1015.08 1015.24 1015.38 1015.51 1015.61 1015.67 1015.70 1015.71 1015.71 1015.72 1015.75 1015.80 1015.87 1015.95 1016.02 1016.06 1016.05 1015.98 1015.85 1015.64 1015.36 1015.04 1014.68 1014.30 1013.91 1013.54 1013.19 1012.86 1012.55 1012.27 1012.01 1011.77 1011.57 1011.42 1011.33 1011.32 1011.41 1011.60
1014.96 1015.06 1015.17 1015.27 1015.35 1015.42 1015.47 1015.52 1015.56 1015.61 1015.68 1015.76 1015.85 1015.94 1016.00 1016.03 1016.01 1015.93 1015.77 1015.54 1015.25 1014.91 1014.53 1014.15 1013.76 1013.38 1013.02 1012.69 1012.38 1012.10 1011.84 1011.60 1011.40 1011.24 1011.13 1011.10 1011.16 1011.32
1014.82 1014.89 1014.97 1015.06 1015.15 1015.23 1015.31 1015.39 1015.47 1015.55 1015.64 1015.73 1015.82 1015.89 1015.94 1015.94 1015.88 1015.76 1015.57 1015.31 1015.00 1014.65 1014.27 1013.88 1013.50 1013.14 1012.80 1012.49 1012.20 1011.94 1011.70 1011.48 1011.30 1011.15 1011.05 1011.02 1011.06 1011.19
1014.71 1014.77 1014.86 1014.96 1015.07 1015.18 1015.29 1015.40 1015.50 1015.60 1015.69 1015.76 1015.83 1015.86 1015.85 1015.80 1015.69 1015.52 1015.28 1014.99 1014.66 1014.30 1013.92 1013.54 1013.19 1012.85 1012.54 1012.27 1012.02 1011.80 1011.61 1011.43 1011.28 1011.16 1011.08 1011.05 1011.09 1011.21
1014.66 1014.76 1014.89 1015.03 1015.18 1015.32 1015.46 1015.59 1015.70 1015.79 1015.86 1015.90 1015.91 1015.88 1015.81 1015.68 1015.49 1015.26 1014.97 1014.65 1014.29 1013.92 1013.55 1013.20 1012.87 1012.57 1012.31 1012.08 1011.88 1011.70 1011.55 1011.42 1011.31 1011.22 1011.17 1011.16 1011.21 1011.32
1014.70 1014.88 1015.07 1015.27 1015.47 1015.66 1015.83 1015.97 1016.08 1016.16 1016.19 1016.18 1016.11 1016.00 1015.84 1015.62 1015.36 1015.06 1014.71 1014.35 1013.97 1013.60 1013.24 1012.90 1012.60 1012.33 1012.11 1011.91 1011.76 1011.62 1011.51 1011.41 1011.34 1011.28 1011.25 1011.26 1011.32 1011.42
Thickness
5750 5750 5749 5749 5749 5749 5747 5743 5734 5728 5730 5736 5739 5742 5741 5739 5737 5734 5732 5730 5727 5725 5722 5719 5716 5713 5710 5707 5704 5701 5699 5696 5694 5691 5688 5686 5683 5680
5749 5748 5747 5747 5747 5747 5746 5744 5740 5733 5728 5734 5735 5737 5737 5735 5733 5731 5728 5727 5724 5721 5718 5716 5713 5709 5706 5703 5700 5697 5694 5691 5689 5686 5683 5681 5678 5675
5747 5746 5744 5745 5743 5743 5742 5740 5738 5734 5728 5730 5733 5733 5731 5730 5728 5726 5724 5722 5719 5717 5714 5711 5708 5704 5701 5698 5695 5692 5689 5686 5683 5681 5678 5676 5673 5670
5744 5743 5742 5742 5740 5739 5738 5737 5735 5733 5728 5724 5725 5725 5724 5724 5722 5720 5718 5716 5714 5712 5709 5705 5702 5699 5696 5693 5690 5686 5683 5680 5678 5675 5672 5669 5666 5663
5742 5740 5739 5737 5735 5734 5733 5732 5731 5731 5728 5723 5721 5720 5719 5718 5715 5713 5712 5709 5707 5705 5702 5699 5696 5693 5689 5686 5683 5680 5677 5674 5672 5669 5665 5662 5659 5656
5740 5738 5736 5734 5732 5731 5729 5728 5727 5724 5723 5720 5717 5715 5713 5711 5708 5705 5701 5700 5698 5697 5695 5692 5689 5686 5683 5680 5677 5674 5671 5668 5665 5662 5659 5656 5652 5649
5736 5734 5732 5730 5728 5726 5725 5723 5721 5718 5716 5714 5710 5708 5706 5703 5700 5699 5695 5692 5691 5690 5687 5685 5682 5679 5676 5673 5671 5668 5665 5662 5659 5656 5652 5649 5645 5642
5730 5728 5728 5725 5722 5720 5718 5717 5715 5712 5710 5707 5705 5702 5700 5699 5696 5693 5689 5685 5683 5684 5681 5678 5676 5673 5670 5667 5664 5662 5659 5655 5652 5649 5645 5642 5638 5635
5724 5722 5722 5720 5717 5714 5712 5711 5709 5707 5705 5702 5699 5697 5695 5694 5690 5686 5683 5681 5678 5678 5674 5671 5669 5666 5664 5661 5658 5654 5651 5648 5645 5641 5638 5635 5631 5627
5720 5717 5714 5712 5709 5707 5707 5705 5703 5701 5699 5697 5695 5694 5692 5689 5685 5682 5678 5675 5674 5672 5669 5664 5662 5659 5657 5653 5650 5647 5644 5640 5637 5634 5630 5626 5623 5619
5714 5711 5708 5704 5701 5699 5699 5697 5695 5693 5691 5690 5689 5687 5684 5682 5678 5674 5671 5667 5664 5663 5663 5659 5656 5653 5649 5646 5643 5640 5636 5632 5629 5626 5622 5618 5614 5609
5707 5704 5699 5697 5694 5691 5690 5689 5686 5685 5683 5682 5680 5679 5676 5674 5670 5667 5664 5660 5658 5656 5655 5652 5649 5645 5641 5639 5635 5631 5628 5624 5621 5617 5614 5610 5605 5600
5700 5697 5693 5689 5686 5684 5682 5681 5678 5677 5676 5674 5672 5670 5668 5665 5662 5659 5657 5654 5651 5649 5648 5644 5641 5638 5634 5631 5628 5624 5620 5617 5612 5608 5604 5601 5597 5593
5690 5689 5685 5681 5678 5676 5674 5672 5670 5669 5669 5667 5664 5661 5659 5656 5654 5651 5648 5645 5643 5641 5639 5636 5633 5630 5626 5623 5620 5616 5613 5609 5605 5601 5597 5592 5588 5585
5681 5677 5675 5673 5670 5669 5666 5664 5662 5661 5660 5658 5656 5653 5652 5649 5646 5642 5639 5637 5634 5632 5630 5627 5624 5622 5618 5615 5612 5608 5604 5601 5598 5594 5590 5586 5582 5577
5671 5669 5666 5663 5661 5659 5658 5656 5654 5652 5651 5648 5647 5645 5643 5640 5636 5633 5630 5627 5624 5622 5620 5618 5615 5613 5609 5607 5604 5600 5597 5593 5590 5587 5583 5579 5575 5571
5661 5661 5659 5657 5654 5653 5651 5649 5646 5644 5641 5639 5637 5635 5632 5630 5627 5625 5621 5618 5615 5612 5610 5607 5605 5602 5599 5596 5593 5591 5588 5585 5582 5578 5574 5571 5567 5564
5652 5652 5650 5648 5646 5644 5641 5639 5636 5634 5632 5629 5627 5624 5622 5619 5617 5614 5612 5608 5605 5603 5600 5597 5594 5590 5587 5585 5583 5581 5579 5576 5573 5570 5566 5562 5559 5556
5642 5641 5639 5637 5635 5634 5631 5629 5626 5623 5621 5618 5616 5613 5611 5608 5606 5603 5601 5597 5595 5592 5590 5587 5583 5580 5577 5576 5575 5572 5570 5567 5564 5560 5557 5554 5551 5548
5633 5631 5629 5627 5624 5622 5619 5617 5614 5612 5609 5607 5605 5602 5600 5597 5594 5591 5589 5587 5584 5581 5578 5576 5573 5570 5568 5566 5566 5564 5561 5558 5555 5551 5548 5545 5542 5540
5624 5621 5618 5615 5613 5610 5607 5605 5602 5600 5597 5595 5592 5590 5588 5586 5583 5580 5578 5575 5573 5571 5568 5566 5564 5562 5559 5557 5555 5555 5553 5551 5548 5544 5541 5537 5534 5531
5612 5610 5607 5604 5601 5598 5596 5593 5591 5588 5586 5583 5580 5578 5576 5574 5571 5569 5567 5565 5563 5561 5559 5557 5554 5552 5549 5547 5546 5545 5544 5542 5539 5537 5534 5531 5528 5526
5600 5597 5595 5592 5588 5586 5583 5581 5578 5575 5572 5569 5567 5565 5563 5561 5559 5558 5556 5554 5552 5551 5549 5547 5545 5543 5541 5539 5538 5537 5536 5534 5532 5528 5526 5525 5523 5521